カタログに戻る

STARLINK-30479

運用中通信VLEO
NORAD 57898·PAYLOAD·🇺🇸 United States

打ち上げ Sep 20, 2023 から Cape Canaveral Space Force Station

Loading…

次のパス (今後24時間)

TLE

最新Source: CelesTrak SupGP

元期: Sep 15, 2026, 02:19 UTC

1 57898C 23146H   26258.09701389  .00044401  00000+0  16084-2 0  2584
2 57898  43.0027 324.5880 0001777 259.0089  77.3266 15.27551554    12

AllMySatでSTARLINK-30479をリアルタイム追跡

Download on the App Store